Date String (YYYY-MM-DD hh:mm:ss) UTC,Instrument flags,Ambient pressure (hPa),Sample flow (lpm),Bypass flow (lpm),Sample temperature (°C),Ambient temperature (°C),ASC tube jacket temperature (°C),LED temperature (°C),Box temperature (°C),Sample RH (%),Span deviation,Mass concentration (μg/m³),Mass concentration (μg/m³),Mass concentration (μg/m³)
DateTimeUTC,F1_M11,P_M11,Q1_M11,Q2_M11,T1_M11,T2_M11,T3_M11,T4_M11,T5_M11,U1_M11,ZSPAN_M11,X0_M11,X2_M11,X1_M11
2023-03-05 23:00:00,,0815.9,5.00,0.00,21.4,19.7,00.0,30.2,23.1,08.8,0000.0,0004.98,0002.26,0001.43
2023-03-05 23:01:00,,0815.8,5.00,0.00,21.4,19.7,00.0,30.2,23.1,08.6,0000.0,0004.95,0002.25,0001.42
2023-03-05 23:02:00,,0815.9,5.00,0.00,21.4,19.7,00.0,30.2,23.1,08.5,0000.0,0004.56,0002.15,0001.40
2023-03-05 23:03:00,,0816.0,5.01,0.00,21.4,19.7,00.0,30.2,23.1,08.6,0000.0,0003.77,0002.11,0001.40
2023-03-05 23:04:00,,0815.9,5.00,0.00,21.4,19.7,00.0,30.2,23.1,08.7,0000.0,0003.72,0002.10,0001.41
2023-03-05 23:05:00,,0815.7,4.98,0.00,21.4,19.6,00.0,30.2,23.0,08.7,0000.0,0004.03,0002.13,0001.42
2023-03-05 23:06:00,,0815.5,4.99,0.00,21.3,19.6,00.0,30.2,23.1,08.7,0000.0,0004.02,0002.12,0001.42
2023-03-05 23:07:00,,0815.7,5.00,0.00,21.3,19.6,00.0,30.2,23.1,08.8,0000.0,0004.03,0002.16,0001.42
2023-03-05 23:08:00,,0815.6,5.01,0.00,21.3,19.6,00.0,30.2,23.1,08.8,0000.0,0004.00,0002.18,0001.43
2023-03-05 23:09:00,,0815.7,5.01,0.00,21.3,19.6,00.0,30.2,23.0,08.1,0000.0,0004.05,0002.21,0001.45
2023-03-05 23:10:00,,0815.9,5.01,0.00,21.3,19.5,00.0,30.2,23.0,08.5,0000.0,0004.22,0002.25,0001.43
2023-03-05 23:11:00,,0816.1,5.00,0.00,21.3,19.6,00.0,30.1,23.0,08.7,0000.0,0004.46,0002.33,0001.44
2023-03-05 23:12:00,,0815.8,4.99,0.00,21.4,20.4,00.0,30.1,23.2,08.5,0000.0,0004.41,0002.33,0001.44
2023-03-05 23:13:00,,0815.9,5.00,0.00,21.5,21.5,00.0,30.1,23.4,08.7,0000.0,0004.43,0002.33,0001.44
2023-03-05 23:14:00,,0815.8,4.98,0.00,21.6,22.2,00.0,30.2,23.6,08.9,0000.0,0004.44,0002.34,0001.44
2023-03-05 23:15:00,,0815.7,4.98,0.00,21.6,21.8,00.0,30.2,23.6,08.7,0000.0,0004.47,0002.35,0001.44
2023-03-05 23:16:00,,0815.7,4.97,0.00,21.7,21.5,00.0,30.3,23.6,08.4,0000.0,0004.05,0002.31,0001.42
2023-03-05 23:17:00,,0815.8,4.99,0.00,21.7,21.1,00.0,30.3,23.5,08.2,0000.0,0003.94,0002.28,0001.41
2023-03-05 23:18:00,,0815.9,4.99,0.00,21.7,20.9,00.0,30.3,23.4,08.3,0000.0,0003.92,0002.26,0001.41
2023-03-05 23:19:00,,0815.9,5.01,0.00,21.7,20.7,00.0,30.3,23.4,08.4,0000.0,0003.86,0002.22,0001.41
2023-03-05 23:20:00,,0815.9,5.00,0.00,21.7,20.5,00.0,30.3,23.4,08.4,0000.0,0003.85,0002.22,0001.40
2023-03-05 23:21:00,,0816.0,5.00,0.00,21.6,20.3,00.0,30.3,23.3,08.3,0000.0,0003.74,0002.19,0001.40
2023-03-05 23:22:00,,0816.0,5.01,0.00,21.6,20.2,00.0,30.4,23.3,08.3,0000.0,0003.50,0002.12,0001.39
2023-03-05 23:23:00,,0816.0,5.00,0.00,21.6,20.1,00.0,30.4,23.3,08.4,0000.0,0003.40,0002.07,0001.39
2023-03-05 23:24:00,,0816.0,5.01,0.00,21.6,20.0,00.0,30.4,23.2,08.3,0000.0,0003.44,0002.08,0001.38
2023-03-05 23:25:00,,0816.1,4.99,0.00,21.5,20.0,00.0,30.3,23.2,08.4,0000.0,0003.52,0002.09,0001.38
2023-03-05 23:26:00,,0816.0,4.99,0.00,21.5,19.9,00.0,30.3,23.2,08.5,0000.0,0003.47,0002.07,0001.38
2023-03-05 23:27:00,,0816.0,5.03,0.00,21.5,19.9,00.0,30.3,23.1,08.7,0000.0,0003.54,0002.08,0001.38
2023-03-05 23:28:00,,0816.0,5.01,0.00,21.5,19.8,00.0,30.3,23.1,08.8,0000.0,0003.58,0002.09,0001.37
2023-03-05 23:29:00,,0816.1,5.01,0.00,21.4,19.8,00.0,30.3,23.1,08.9,0000.0,0003.72,0002.11,0001.37
2023-03-05 23:30:00,,0816.1,5.00,0.00,21.4,19.8,00.0,30.3,23.1,09.0,0000.0,0003.76,0002.13,0001.37
2023-03-05 23:31:00,,0816.1,4.99,0.00,21.4,19.7,00.0,30.3,23.0,09.0,0000.0,0003.91,0002.18,0001.37
2023-03-05 23:32:00,,0816.1,5.01,0.00,21.4,19.7,00.0,30.3,23.0,09.0,0000.0,0004.03,0002.19,0001.37
2023-03-05 23:33:00,,0816.0,5.00,0.00,21.3,19.7,00.0,30.3,23.0,09.2,0000.0,0004.89,0002.23,0001.36
2023-03-05 23:34:00,,0816.0,4.99,0.00,21.3,19.7,00.0,30.2,23.0,09.2,0000.0,0005.09,0002.31,0001.35
2023-03-05 23:35:00,,0816.0,4.99,0.00,21.3,19.6,00.0,30.2,23.0,09.3,0000.0,0005.04,0002.30,0001.37
2023-03-05 23:36:00,,0816.0,4.99,0.00,21.3,19.6,00.0,30.2,23.0,09.2,0000.0,0004.93,0002.26,0001.37
2023-03-05 23:37:00,,0816.0,5.01,0.00,21.3,19.6,00.0,30.2,23.0,09.3,0000.0,0004.89,0002.25,0001.36
2023-03-05 23:38:00,,0816.0,4.99,0.00,21.3,19.6,00.0,30.2,23.0,09.5,0000.0,0004.82,0002.24,0001.36
2023-03-05 23:39:00,,0816.0,5.00,0.00,21.3,19.6,00.0,30.2,23.0,09.4,0000.0,0004.78,0002.25,0001.37
2023-03-05 23:40:00,,0815.9,5.02,0.00,21.3,19.5,00.0,30.2,23.0,09.4,0000.0,0004.66,0002.23,0001.37
2023-03-05 23:41:00,,0815.9,4.99,0.00,21.3,19.6,00.0,30.2,23.0,09.4,0000.0,0004.66,0002.22,0001.37
2023-03-05 23:42:00,,0816.0,4.97,0.00,21.3,19.5,00.0,30.1,23.0,09.5,0000.0,0004.63,0002.19,0001.36
2023-03-05 23:43:00,,0816.0,5.00,0.00,21.3,19.5,00.0,30.1,22.9,09.6,0000.0,0004.48,0002.15,0001.36
2023-03-05 23:44:00,,0816.1,5.02,0.00,21.3,19.5,00.0,30.1,22.9,09.6,0000.0,0003.83,0002.17,0001.38
2023-03-05 23:45:00,,0816.0,5.00,0.00,21.3,19.5,00.0,30.1,22.9,09.5,0000.0,0003.86,0002.15,0001.38
2023-03-05 23:46:00,,0816.1,5.00,0.00,21.3,20.3,00.0,30.1,23.1,09.5,0000.0,0003.92,0002.16,0001.37
2023-03-05 23:47:00,,0816.0,5.00,0.00,21.4,21.6,00.0,30.1,23.4,09.7,0000.0,0003.91,0002.17,0001.37
2023-03-05 23:48:00,,0816.0,5.03,0.00,21.5,22.4,00.0,30.1,23.6,09.6,0000.0,0003.96,0002.23,0001.38
2023-03-05 23:49:00,,0816.0,4.97,0.00,21.6,22.0,00.0,30.2,23.6,09.7,0000.0,0004.15,0002.27,0001.39
2023-03-05 23:50:00,,0816.0,5.02,0.00,21.7,21.5,00.0,30.2,23.5,09.7,0000.0,0004.10,0002.24,0001.39
2023-03-05 23:51:00,,0816.0,5.01,0.00,21.7,21.2,00.0,30.3,23.5,09.7,0000.0,0003.93,0002.19,0001.40
2023-03-05 23:52:00,,0816.1,4.99,0.00,21.7,20.9,00.0,30.3,23.5,09.7,0000.0,0004.03,0002.23,0001.41
2023-03-05 23:53:00,,0816.0,5.00,0.00,21.7,20.7,00.0,30.3,23.4,09.7,0000.0,0003.99,0002.23,0001.42
2023-03-05 23:54:00,,0816.1,5.01,0.00,21.7,20.5,00.0,30.3,23.4,09.7,0000.0,0004.08,0002.24,0001.43
2023-03-05 23:55:00,,0816.1,5.00,0.00,21.7,20.4,00.0,30.3,23.4,09.7,0000.0,0003.89,0002.17,0001.43
2023-03-05 23:56:00,,0816.1,5.00,0.00,21.7,20.3,00.0,30.3,23.4,09.8,0000.0,0003.71,0002.13,0001.43
2023-03-05 23:57:00,,0816.1,5.01,0.00,21.6,20.2,00.0,30.4,23.3,09.9,0000.0,0003.73,0002.14,0001.43
2023-03-05 23:58:00,,0816.0,5.00,0.00,21.6,20.2,00.0,30.4,23.3,09.8,0000.0,0003.87,0002.16,0001.44
2023-03-05 23:59:00,,0816.1,5.01,0.00,21.6,20.1,00.0,30.4,23.3,09.7,0000.0,0003.87,0002.13,0001.45
